Location: Bonneuil
(46.1010°N, 2.9693°E)
Time: 20:01:08
(UTC+00:00)

ISS - Pass Details

Date: 08 March 2021
Orbit: 418 x 422 km, 51.6° (Epoch: 12 April)

Event Time Altitude Azimuth Distance (km) Brightness Sun altitude
Exits shadow 04:43:19 29° 312° (NW) 799 -2.7 -16.5°
Maximum altitude 04:44:48 60° 22° (NNE) 483 -3.4 -16.3°
Drops below altitude 10° 04:48:08 10° 104° (ESE) 1,496 0.1 -15.7°
Sets 04:50:14 0° 108° (ESE) 2,358 1.2 -15.3°
